Regional Weather Roundup
Issued by NWS

Home | Current Version | Previous Version | Text Only | Print | Product List | Glossary On
Versions: 1 2 3 4 5 6 7 8 9 10 11 12 13 14 15 16 17 18 19 20 21 22 23 24 25 26 27 28 29 30 31 32 33 34 35 36 37 38 39 40 41 42 43 44 45 46 47 48 49 50
000
ASUS44 KFWD 250310
RWRTX
NORTH TEXAS HOURLY WEATHER ROUNDUP
NATIONAL WEATHER SERVICE FORT WORTH TX
1000 PM CDT SUN SEP 24 2017

NOTE: "FAIR" INDICATES FEW OR NO CLOUDS BELOW 12,000 FEET WITH NO
SIGNIFICANT WEATHER AND/OR OBSTRUCTIONS TO VISIBILITY.

TXZ118-119-250400-
DALLAS/FORT WORTH METROPLEX

CITY           SKY/WX    TMP DP  RH WIND       PRES   REMARKS
DFW AIRPORT    MOCLDY    84  65  52 SE12      29.86R
DALLAS LOVE    PTCLDY    84  65  52 SE15      29.88R
FTW MEACHAM    CLOUDY    85  65  51 SE13      29.87R
DAL-EXECUTIVE  CLEAR     82  66  58 SE10      29.88R
FTW-ALLIANCE   MOCLDY    83  65  54 SE9       29.87R
FTW-NAS-JRB    CLOUDY    85  61  44 SE10      29.87R
FTW-SPINKS     PTCLDY    81  62  53 SE8       29.90R
ARLINGTON      PTCLDY    82  67  60 SE9       29.88R
GRAND PRAIRIE  PTCLDY    83  63  51 E9        29.89R
MESQUITE       CLEAR     80  64  59 SE7       29.89R
LANCASTER      CLEAR     81  65  58 SE9       29.89R
$$

TXZ091>094-102>105-117-120-121-131>134-250400-
NORTH CENTRAL TEXAS

CITY           SKY/WX    TMP DP  RH WIND       PRES   REMARKS
SHRMAN/DENISON CLOUDY    80  65  58 SE7       29.91R
GAINESVILLE    PTCLDY    79  64  61 SE8       29.91R
BOWIE          CLOUDY    78  64  62 E3        29.89R
BRIDGEPORT     CLOUDY    78  62  58 SE3       29.89S
DECATUR        CLOUDY    80  64  56 SE8       29.89R
DENTON         PTCLDY    81  66  60 SE7       29.88R
MCKINNEY       CLEAR     78  69  73 E3        29.89R
BONHAM         PTCLDY    76  65  67 SE7       29.91R
GREENVILLE     CLEAR     79  64  61 E3        29.90R
ROCKWALL       CLEAR     78  66  65 SE6       29.89R
TERRELL        CLEAR     79  63  57 SE7       29.89R
WAXAHACHIE     CLEAR     80  67  62 SE7       29.90R
CLEBURNE       CLEAR     81  64  57 SE12G17   29.90R
GRANBURY       PTCLDY    83  63  50 SE7       29.89R
$$

TXZ083>090-098>101-113>116-127>130-139>142-154-155-250400-
WESTERN NORTH TEXAS

CITY           SKY/WX    TMP DP  RH WIND       PRES   REMARKS
WICHITA FALLS  CLOUDY    79  62  56 SE8       29.86R
WF-KICKAPOO    CLOUDY    80  64  57 E12       29.89R
VERNON         MOCLDY    76  64  65 E5        29.88S
ABILENE        CLOUDY    73  68  84 MISG      29.90R
ABILENE-DYESS  CLOUDY    74  67  79 E3        29.89R
GRAHAM         CLOUDY    78  66  65 CALM      29.87R
BRECKENRIDGE   CLOUDY    74  71  91 CALM      29.89R
CISCO          CLOUDY    72  70  94 S7        29.91R
EASTLAND       MOCLDY    74  68  83 S7        29.90S
RANGER         MOCLDY    74  68  83 S3        29.90S
MINERAL WELLS  MOCLDY    78  61  55 SE7       29.86R
STEPHENVILLE   CLOUDY    79  61  54 SE7       29.92R
COMANCHE       MOCLDY    73  73 100 S5        29.90R
COLEMAN        CLOUDY    73  67  83 SE12      29.91R
$$

TXZ143>147-156>162-174-175-250400-
CENTRAL TEXAS

CITY           SKY/WX    TMP DP  RH WIND       PRES   REMARKS
WACO           CLEAR     81  65  58 SE12      29.88R
WACO-TSTC      CLEAR     81  64  57 SE3       29.88R
WACO-MCGREGOR  PTCLDY    81  66  60 SE8       29.89R
HILLSBORO      CLEAR     81  66  60 SE9       29.89R
CORSICANA      CLEAR     80  68  66 SE8       29.89S
MEXIA          CLEAR     78  68  70 E8        29.88S
HEARNE         CLEAR    N/A N/A N/A E6        29.89S
CAMERON        CLEAR     80  70  71 SE6       29.88R
KILLEEN        CLEAR     76  68  75 SE8       29.88R
FORT HOOD      CLEAR    N/A N/A N/A SE7       29.86R
GATESVILLE     CLEAR     79  68  69 CALM      29.90S
HAMILTON       CLEAR     80  67  64 S9        29.91R
LAMPASAS       CLEAR     78  69  74 SE6       29.89S
$$

TXZ095>097-106>112-122>126-135>138-148>153-164>167-250400-
EAST TEXAS

CITY           SKY/WX    TMP DP  RH WIND       PRES   REMARKS
PARIS          CLEAR     75  67  76 E8        29.92R
SULPHUR SPRNGS CLEAR     78  65  64 SE6       29.93S
MOUNT PLEASANT CLEAR     73  69  86 CALM      29.93R
GILMER         CLEAR     75  66  75 CALM      29.92R
MINEOLA        CLEAR     75  66  73 SE3       29.91R
TYLER          CLEAR     75  66  73 SE6       29.91R
LONGVIEW       CLEAR     76  68  76 SE5       29.91R
MARSHALL       CLEAR     70  65  85 CALM      29.94S
ATHENS         CLEAR     73  61  64 CALM      29.89S
PALESTINE      CLEAR     78  67  68 SE5       29.92R
JACKSONVILLE   CLEAR     78  65  63 SE3       29.94S
HENDERSON      CLEAR     72  67  84 CALM      29.93S
CENTER         CLEAR     76  74  92 CALM      29.93R
NACOGDOCHES    CLEAR     71  69  93 CALM      29.92R
LUFKIN         CLEAR     74  70  87 S3        29.91R
$$

SUPPLEMENTAL OBSERVATIONS (NWS FORT WORTH AREA)

CITY           SKY/WX    TMP DP  RH WIND       PRES   REMARKS
CADDO GRASSLND   N/A     75  63  64 SE1         N/A
PAT MAYSE LAKE   N/A     79  68  69 E6          N/A
GREENVILLE       N/A     79  66  65 SE6         N/A
CEDAR HILL       N/A     81  64  57 SE5         N/A
LBJ GRASSLAND    N/A    N/A N/A N/A E7          N/A
MCGREGOR         N/A     81  64  57 SE6         N/A
$$

SUPPLEMENTAL OBSERVATIONS (NWS NORMAN AREA)

CITY           SKY/WX    TMP DP  RH WIND       PRES   REMARKS
GOODLETT         N/A     71  65  83 E8        29.89R
ODELL            N/A     74  67  78 E7        29.89S
CROWELL          N/A     73  67  83 E5        29.89S
KNOX CITY        N/A     74  66  77 SE8       29.89S
SEYMOUR          N/A     74  67  76 S5        29.89S
MILLERS CREEK    N/A     73  66  78 E5          N/A
$$

SUPPLEMENTAL OBSERVATIONS (NWS SAN ANGELO AREA)

CITY           SKY/WX    TMP DP  RH WIND       PRES   REMARKS
HASKELL          N/A     73  63  71 SE6       29.89S
THROCKMORTON     N/A     74  67  78 SE8       29.89S
STAMFORD         N/A     73  67  80 SE5       29.90R
CLYDE            N/A     72  67  84 SE6       29.92S
HAMBY            N/A     75  66  73 SE8         N/A
IVIE RESERVOIR   N/A     72  68  88 NE10        N/A
COLORADO BEND    N/A     79  64  61 SE8         N/A
$$

SUPPLEMENTAL OBSERVATIONS (NWS SHREVEPORT AREA)

CITY           SKY/WX    TMP DP  RH WIND       PRES   REMARKS
CLARKSVILLE      N/A     75  66  73 SE1         N/A
GILMER           N/A     73  68  83 CALM        N/A
HENDERSON        N/A     75  64  69 CALM        N/A
N SABINE NF      N/A     73  72  94 MISG        N/A
S SABINE NF      N/A     73  72  94 CALM        N/A
$$

SUPPLEMENTAL OBSERVATIONS ARE A COLLECTION OF AUTOMATED INSTRUMENTS
THAT ARE MAINTAINED BY A VARIETY OF FEDERAL AND STATE AGENCIES.
CERTAIN ELEMENTS...SUCH AS HUMIDITY VALUES AND SUSTAINED WIND
SPEEDS...MAY BE APPROXIMATED.




USA.gov is the U.S. government's official web portal to all federal, state and local government web resources and services.